TimeCST,TemperatureF,Dew PointF,Humidity,Sea Level PressureIn,VisibilityMPH,Wind Direction,Wind SpeedMPH,Gust SpeedMPH,PrecipitationIn,Events,Conditions,WindDirDegrees,DateUTC
12:53 AM,-29.0,-36.0,69,30.57,10.0,Calm,Calm,-,N/A,,Clear,0,2013-12-08 06:53:00
1:53 AM,-31.0,-9999,N/A,30.56,10.0,NNW,4.6,-,N/A,,Clear,340,2013-12-08 07:53:00
2:53 AM,-31.0,-9999,N/A,30.55,9.0,Calm,Calm,-,N/A,,Clear,0,2013-12-08 08:53:00
3:53 AM,-33.0,-9999,N/A,30.55,10.0,Calm,Calm,-,N/A,,Clear,0,2013-12-08 09:53:00
4:53 AM,-33.0,-9999,N/A,30.53,10.0,Calm,Calm,-,N/A,,Clear,0,2013-12-08 10:53:00
5:53 AM,-32.1,-9999,N/A,30.53,10.0,Calm,Calm,-,N/A,,Clear,0,2013-12-08 11:53:00
6:53 AM,-27.9,-35.0,69,30.51,10.0,Calm,Calm,-,N/A,,Overcast,0,2013-12-08 12:53:00
7:53 AM,-27.9,-34.1,73,30.50,10.0,Calm,Calm,-,N/A,,Mostly Cloudy,0,2013-12-08 13:53:00
8:53 AM,-25.1,-31.0,74,30.48,10.0,Calm,Calm,-,N/A,,Overcast,0,2013-12-08 14:53:00
9:53 AM,-20.9,-27.0,73,30.48,10.0,Calm,Calm,-,N/A,,Mostly Cloudy,0,2013-12-08 15:53:00
10:53 AM,-17.0,-23.1,74,30.46,8.0,Calm,Calm,-,N/A,,Overcast,0,2013-12-08 16:53:00
11:53 AM,-9.0,-14.1,79,30.40,10.0,Calm,Calm,-,N/A,,Overcast,0,2013-12-08 17:53:00
12:53 PM,-2.9,-9.0,75,30.36,10.0,ESE,3.5,-,N/A,,Overcast,120,2013-12-08 18:53:00
1:16 PM,-0.4,-7.6,72,30.18,6.0,SE,6.9,-,N/A,,Haze,130,2013-12-08 19:16:00
1:31 PM,-0.4,-7.6,72,30.17,2.5,ESE,5.8,-,0.00,Snow,Light Snow,120,2013-12-08 19:31:00
1:53 PM,-0.0,-7.1,72,30.31,1.8,SE,5.8,-,0.00,Snow,Light Snow,130,2013-12-08 19:53:00
2:01 PM,-0.4,-7.6,72,30.15,2.5,SE,5.8,-,0.00,Snow,Light Snow,130,2013-12-08 20:01:00
2:08 PM,1.4,-5.8,72,30.14,5.0,SE,8.1,-,0.00,Snow,Light Snow,140,2013-12-08 20:08:00
2:53 PM,1.9,-5.1,72,30.28,8.0,SE,6.9,-,0.00,,Overcast,140,2013-12-08 20:53:00
3:53 PM,1.9,-5.1,72,30.27,10.0,SE,5.8,-,0.00,,Overcast,130,2013-12-08 21:53:00
4:53 PM,3.0,-2.9,76,30.23,3.0,SE,5.8,-,0.00,Snow,Light Snow,130,2013-12-08 22:53:00
5:00 PM,3.2,-2.2,78,30.08,2.0,SE,6.9,-,0.00,Snow,Light Snow,130,2013-12-08 23:00:00
5:13 PM,3.2,-2.2,78,30.07,3.0,SE,6.9,-,0.00,Snow,Light Snow,130,2013-12-08 23:13:00
5:53 PM,3.0,-2.0,80,30.21,3.0,SSE,4.6,-,0.00,Snow,Light Snow,150,2013-12-08 23:53:00
6:00 PM,3.2,-2.2,78,30.06,2.5,SSE,3.5,-,0.00,Snow,Light Snow,160,2013-12-09 00:00:00
6:07 PM,3.2,-2.2,78,30.06,4.0,South,4.6,-,0.00,Snow,Light Snow,170,2013-12-09 00:07:00
6:30 PM,3.2,-2.2,78,30.05,2.5,SSE,4.6,-,0.00,Snow,Light Snow,150,2013-12-09 00:30:00
6:50 PM,3.2,-2.2,78,30.04,2.5,Calm,Calm,-,0.00,Snow,Light Snow,0,2013-12-09 00:50:00
6:53 PM,3.0,-2.0,80,30.19,2.5,SSE,3.5,-,0.00,Snow,Light Snow,150,2013-12-09 00:53:00
7:04 PM,3.2,-2.2,78,30.03,2.5,SSE,3.5,-,0.00,Snow,Light Snow,150,2013-12-09 01:04:00
7:27 PM,3.2,-2.2,78,30.03,4.0,Calm,Calm,-,0.00,Snow,Light Snow,0,2013-12-09 01:27:00
7:53 PM,3.0,-2.0,80,30.17,5.0,Calm,Calm,-,0.00,Snow,Light Snow,0,2013-12-09 01:53:00
8:53 PM,1.9,-2.9,80,30.15,4.0,Calm,Calm,-,0.00,Snow,Light Snow,0,2013-12-09 02:53:00
9:30 PM,1.4,-2.2,85,29.98,2.5,Calm,Calm,-,0.00,Snow,Light Snow,0,2013-12-09 03:30:00
9:38 PM,1.4,-2.2,85,29.97,3.0,Calm,Calm,-,0.00,Snow,Light Snow,0,2013-12-09 03:38:00
9:53 PM,-0.0,-5.1,79,30.12,9.0,Calm,Calm,-,0.00,,Mostly Cloudy,0,2013-12-09 03:53:00
10:01 PM,-0.4,-5.8,78,29.97,10.0,Calm,Calm,-,N/A,,Mostly Cloudy,0,2013-12-09 04:01:00
10:46 PM,-2.2,-5.8,85,29.95,2.0,Calm,Calm,-,0.00,Snow,Light Snow,0,2013-12-09 04:46:00
10:53 PM,-2.0,-6.0,83,30.09,2.0,Calm,Calm,-,0.00,Snow,Light Snow,0,2013-12-09 04:53:00
11:06 PM,-0.4,-5.8,78,29.95,2.0,Calm,Calm,-,0.00,Snow,Light Snow,0,2013-12-09 05:06:00
11:13 PM,-0.4,-5.8,78,29.95,1.8,Calm,Calm,-,0.00,Snow,Light Snow,0,2013-12-09 05:13:00
11:15 PM,-0.4,-5.8,78,29.95,2.0,Calm,Calm,-,0.00,Snow,Light Snow,0,2013-12-09 05:15:00
11:22 PM,1.4,-4.0,78,29.95,1.5,Calm,Calm,-,0.00,Snow,Light Snow,0,2013-12-09 05:22:00
11:32 PM,1.4,-2.2,85,29.95,2.0,Calm,Calm,-,0.00,Snow,Light Snow,0,2013-12-09 05:32:00
11:44 PM,1.4,-4.0,78,29.94,3.0,Calm,Calm,-,0.00,Snow,Light Snow,0,2013-12-09 05:44:00
11:53 PM,1.9,-4.0,76,30.07,3.0,Calm,Calm,-,0.00,Snow,Light Snow,0,2013-12-09 05:53:00